Date String (YYYY-MM-DD hh:mm:ss) UTC,Instrument flags,Ambient pressure (hPa),Sample flow (lpm),Bypass flow (lpm),Sample temperature (°C),Ambient temperature (°C),ASC tube jacket temperature (°C),LED temperature (°C),Box temperature (°C),Sample RH (%),Span deviation,Mass concentration (μg/m³),Mass concentration (μg/m³),Mass concentration (μg/m³)
DateTimeUTC,F1_M11,P_M11,Q1_M11,Q2_M11,T1_M11,T2_M11,T3_M11,T4_M11,T5_M11,U1_M11,ZSPAN_M11,X2_M11,X0_M11,X1_M11
2021-11-04 07:00:00,,0830.7,5.00,0.00,26.6,25.7,00.0,35.7,28.4,13.4,0000.0,0002.68,0003.09,0002.50
2021-11-04 07:01:00,,0830.6,5.01,0.00,26.6,25.7,00.0,35.7,28.4,13.4,0000.0,0002.66,0003.07,0002.48
2021-11-04 07:02:00,,0830.6,4.99,0.00,26.6,25.7,00.0,35.7,28.4,13.5,0000.0,0002.66,0003.09,0002.48
2021-11-04 07:03:00,,0830.6,5.00,0.00,26.6,25.7,00.0,35.7,28.3,13.5,0000.0,0002.62,0003.04,0002.49
2021-11-04 07:04:00,,0830.6,5.01,0.00,26.6,25.6,00.0,35.7,28.3,13.4,0000.0,0002.64,0003.12,0002.49
2021-11-04 07:05:00,,0830.6,5.01,0.00,26.6,25.6,00.0,35.7,28.4,13.6,0000.0,0002.68,0003.20,0002.52
2021-11-04 07:06:00,,0830.6,5.00,0.00,26.6,25.6,00.0,35.7,28.4,13.7,0000.0,0002.74,0003.37,0002.56
2021-11-04 07:07:00,,0830.6,5.01,0.00,26.6,25.6,00.0,35.7,28.4,13.8,0000.0,0002.79,0003.45,0002.59
2021-11-04 07:08:00,,0830.6,5.00,0.00,26.6,25.6,00.0,35.7,28.4,13.7,0000.0,0002.84,0003.54,0002.63
2021-11-04 07:09:00,,0830.6,5.00,0.00,26.6,25.6,00.0,35.6,28.3,13.7,0000.0,0002.92,0003.66,0002.69
2021-11-04 07:10:00,,0830.6,5.01,0.00,26.6,25.6,00.0,35.6,28.3,13.8,0000.0,0002.99,0003.77,0002.74
2021-11-04 07:11:00,,0830.6,5.00,0.00,26.6,25.6,00.0,35.6,28.3,13.8,0000.0,0003.03,0003.76,0002.79
2021-11-04 07:12:00,,0830.6,5.00,0.00,26.6,25.6,00.0,35.6,28.3,13.9,0000.0,0003.11,0003.92,0002.84
2021-11-04 07:13:00,,0830.6,5.00,0.00,26.6,25.6,00.0,35.6,28.3,14.0,0000.0,0003.15,0004.24,0002.90
2021-11-04 07:14:00,,0830.6,5.01,0.00,26.5,25.6,00.0,35.6,28.3,14.0,0000.0,0003.17,0004.31,0002.94
2021-11-04 07:15:00,,0830.6,4.99,0.00,26.5,25.6,00.0,35.6,28.3,13.8,0000.0,0003.18,0004.19,0002.97
2021-11-04 07:16:00,,0830.6,5.00,0.00,26.5,25.6,00.0,35.6,28.3,13.8,0000.0,0003.18,0004.24,0002.98
2021-11-04 07:17:00,,0830.6,5.01,0.00,26.5,25.6,00.0,35.6,28.3,13.7,0000.0,0003.17,0004.16,0002.96
2021-11-04 07:18:00,,0830.6,5.01,0.00,26.5,25.6,00.0,35.6,28.3,13.6,0000.0,0003.15,0004.09,0002.95
2021-11-04 07:19:00,,0830.6,5.00,0.00,26.5,25.6,00.0,35.6,28.3,13.6,0000.0,0003.14,0004.04,0002.94
2021-11-04 07:20:00,,0830.6,5.01,0.00,26.5,25.6,00.0,35.6,28.3,13.6,0000.0,0003.13,0004.05,0002.91
2021-11-04 07:21:00,,0830.6,5.00,0.00,26.5,25.6,00.0,35.6,28.3,13.5,0000.0,0003.10,0003.98,0002.87
2021-11-04 07:22:00,,0830.6,5.00,0.00,26.5,25.5,00.0,35.6,28.3,13.6,0000.0,0003.09,0004.05,0002.84
2021-11-04 07:23:00,,0830.6,5.01,0.00,26.5,25.5,00.0,35.6,28.3,13.6,0000.0,0003.02,0003.93,0002.80
2021-11-04 07:24:00,,0830.6,5.00,0.00,26.5,25.5,00.0,35.6,28.3,13.6,0000.0,0002.93,0003.49,0002.73
2021-11-04 07:25:00,,0830.6,4.99,0.00,26.5,25.5,00.0,35.6,28.2,13.6,0000.0,0002.85,0003.29,0002.66
2021-11-04 07:26:00,,0830.6,5.00,0.00,26.5,25.5,00.0,35.6,28.2,13.6,0000.0,0002.82,0003.26,0002.63
2021-11-04 07:27:00,,0830.6,5.01,0.00,26.5,25.5,00.0,35.6,28.2,13.5,0000.0,0002.75,0003.10,0002.59
2021-11-04 07:28:00,,0830.6,5.00,0.00,26.4,25.5,00.0,35.6,28.2,13.5,0000.0,0002.73,0003.37,0002.57
2021-11-04 07:29:00,,0830.6,5.00,0.00,26.4,25.5,00.0,35.6,28.2,13.5,0000.0,0002.74,0003.75,0002.55
2021-11-04 07:30:00,,0830.6,5.01,0.00,26.4,25.5,00.0,35.5,28.2,13.5,0000.0,0002.75,0003.79,0002.53
2021-11-04 07:31:00,,0830.5,4.99,0.00,26.4,25.5,00.0,35.5,28.2,13.5,0000.0,0002.74,0003.80,0002.52
2021-11-04 07:32:00,,0830.6,5.00,0.00,26.4,25.4,00.0,35.5,28.2,13.5,0000.0,0002.73,0003.75,0002.52
2021-11-04 07:33:00,,0830.5,5.01,0.00,26.4,25.4,00.0,35.5,28.2,13.4,0000.0,0002.72,0003.73,0002.51
2021-11-04 07:34:00,,0830.5,5.01,0.00,26.4,25.4,00.0,35.5,28.1,13.3,0000.0,0002.71,0003.77,0002.51
2021-11-04 07:35:00,,0830.5,4.99,0.00,26.4,25.4,00.0,35.5,28.1,13.3,0000.0,0002.71,0003.75,0002.50
2021-11-04 07:36:00,,0830.5,5.00,0.00,26.4,25.4,00.0,35.5,28.1,13.2,0000.0,0002.72,0003.81,0002.50
2021-11-04 07:37:00,,0830.5,4.99,0.00,26.4,25.4,00.0,35.5,28.1,13.2,0000.0,0002.70,0004.02,0002.49
2021-11-04 07:38:00,,0830.5,5.02,0.00,26.4,25.4,00.0,35.5,28.1,13.2,0000.0,0002.69,0004.43,0002.48
2021-11-04 07:39:00,,0830.5,4.98,0.00,26.4,25.4,00.0,35.5,28.1,13.2,0000.0,0002.69,0004.23,0002.46
2021-11-04 07:40:00,,0830.5,5.01,0.00,26.3,25.3,00.0,35.5,28.1,13.2,0000.0,0002.63,0003.70,0002.44
2021-11-04 07:41:00,,0830.5,5.00,0.00,26.3,25.3,00.0,35.5,28.1,13.2,0000.0,0002.58,0003.59,0002.42
2021-11-04 07:42:00,,0830.4,5.00,0.00,26.3,25.3,00.0,35.4,28.1,13.2,0000.0,0002.54,0003.58,0002.39
2021-11-04 07:43:00,,0830.4,5.00,0.00,26.3,25.3,00.0,35.4,28.1,13.2,0000.0,0002.50,0003.52,0002.37
2021-11-04 07:44:00,,0830.4,4.99,0.00,26.3,25.3,00.0,35.4,28.1,13.2,0000.0,0002.47,0003.45,0002.35
2021-11-04 07:45:00,,0830.4,5.00,0.00,26.3,25.3,00.0,35.4,28.1,13.2,0000.0,0002.47,0003.39,0002.33
2021-11-04 07:46:00,,0830.4,4.99,0.00,26.3,25.3,00.0,35.4,28.1,13.2,0000.0,0002.46,0003.37,0002.33
2021-11-04 07:47:00,,0830.3,5.01,0.00,26.3,25.3,00.0,35.4,28.0,13.2,0000.0,0002.44,0003.70,0002.32
2021-11-04 07:48:00,,0830.4,5.00,0.00,26.3,25.3,00.0,35.4,28.0,13.2,0000.0,0002.43,0004.43,0002.31
2021-11-04 07:49:00,,0830.4,5.00,0.00,26.3,25.3,00.0,35.4,28.0,13.2,0000.0,0002.45,0004.14,0002.32
2021-11-04 07:50:00,,0830.5,5.00,0.00,26.3,25.3,00.0,35.4,28.0,13.2,0000.0,0002.46,0005.11,0002.32
2021-11-04 07:51:00,,0830.5,5.01,0.00,26.3,25.3,00.0,35.4,28.0,13.2,0000.0,0002.48,0005.17,0002.33
2021-11-04 07:52:00,,0830.5,4.99,0.00,26.3,25.3,00.0,35.4,28.0,13.2,0000.0,0002.48,0005.19,0002.34
2021-11-04 07:53:00,,0830.4,5.01,0.00,26.2,25.3,00.0,35.4,28.0,13.2,0000.0,0002.50,0005.16,0002.35
2021-11-04 07:54:00,,0830.4,5.00,0.00,26.2,25.3,00.0,35.3,28.0,13.2,0000.0,0002.54,0005.85,0002.37
2021-11-04 07:55:00,,0830.4,4.99,0.00,26.2,25.3,00.0,35.3,28.0,13.2,0000.0,0002.53,0006.37,0002.37
2021-11-04 07:56:00,,0830.3,5.01,0.00,26.2,25.3,00.0,35.3,28.0,13.2,0000.0,0002.49,0006.30,0002.35
2021-11-04 07:57:00,,0830.4,5.01,0.00,26.2,25.2,00.0,35.3,27.9,13.2,0000.0,0002.50,0006.31,0002.36
2021-11-04 07:58:00,,0830.4,4.99,0.00,26.2,25.2,00.0,35.3,28.0,13.3,0000.0,0002.52,0006.04,0002.36
2021-11-04 07:59:00,,0830.3,4.99,0.00,26.2,25.2,00.0,35.3,27.9,13.4,0000.0,0002.52,0005.09,0002.36
